カタログに戻る

BEIDOU 3M15

運用中ナビゲーションMEO
NORAD 43647·PAYLOAD·🇨🇳 China

打ち上げ Oct 15, 2018 から Xichang Satellite Launch Center

Loading…

次のパス (今後24時間)

TLE

最新Source: CelesTrak SupGP

元期: Sep 12, 2026, 00:00 UTC

1 43647C 18078A   26255.00000000  .00000000  00000+0  00000+0 0  2551
2 43647  54.0085 296.9343 0006118  30.9231 325.6845  1.86232593    11

AllMySatでBEIDOU 3M15をリアルタイム追跡

Download on the App Store